Terug naar catalogus

STARLINK-4019

ActiefCommunicatieVLEO
NORAD 52598·PAYLOAD·🇺🇸 United States

Gelanceerd May 14, 2022 vanaf Cape Canaveral Space Force Station

Loading…

Volgende Passages (komende 24 uur)

TLE

VersSource: CelesTrak SupGP

Epoch: Sep 15, 2026, 01:52 UTC

1 52598C 22052A   26258.07826389  .00014834  00000+0  42448-3 0  2588
2 52598  53.1568 141.6108 0001257  82.6220 176.4466 15.35386966    12

Volg STARLINK-4019 in realtime met AllMySat

Download on the App Store